Regional Weather Roundup
Issued by NWS

Home | Current Version | Previous Version | Graphics & Text | Print | Product List | Glossary On
Versions: 1 2 3 4 5 6 7 8 9 10 11 12 13 14 15 16 17 18 19 20 21 22 23 24 25 26 27 28 29 30 31 32 33 34 35 36 37 38 39 40 41 42 43 44 45 46 47 48 49 50
000
ASUS43 KLOT 281531
RWRIL

ILLINOIS REGIONAL WEATHER ROUNDUP
NATIONAL WEATHER SERVICE CHICAGO/ROMEOVILLE IL
1000 AM CDT THU JUL 28 2016

NOTE: "FAIR" INDICATES FEW OR NO CLOUDS BELOW 12,000 FEET WITH NO
SIGNIFICANT WEATHER AND/OR OBSTRUCTIONS TO VISIBILITY.

* THESE STATIONS ARE NOT UNDER NWS QUALITY CONTROL. THEY ALSO MAY NOT
  REPORT WEATHER SUCH AS PRECIPITATION OR FOG.

ILZ001-002-007-009-015-016-024-281600-
NORTHWEST ILLINOIS

CITY           SKY/WX    TMP DP  RH WIND       PRES   REMARKS
MOLINE         SUNNY     83  69  62 W5        29.89  HX  86
STERLING*      MOSUNNY   82  73  74 VRB5      29.90  HX  87
SAVANNA*       SUNNY     80  72  76 W5        29.90S HX  84
$$

ILZ003-004-008-010-011-017-018-281600-
NORTH CENTRAL ILLINOIS

CITY           SKY/WX    TMP DP  RH WIND       PRES   REMARKS
ROCKFORD       MOSUNNY   79  69  71 E5        29.91  HX  81
FREEPORT*      MOSUNNY   78  72  81 CALM      29.92F HX  81
ROCHELLE*      MOSUNNY   80  73  81 CALM      29.91S HX  84
DE KALB*       MOSUNNY   81  73  76 E5        29.92S HX  86
$$

ILZ005-006-012>014-019>023-281600-
NORTHEAST ILLINOIS

CITY           SKY/WX    TMP DP  RH WIND       PRES   REMARKS
CHICAGO-OHARE  CLOUDY    81  70  69 NE8       29.90  HX  84
CHICAGO-MIDWAY MOSUNNY   83  70  64 SE8       29.90  HX  87
AURORA         SUNNY     83  71  67 SE5       29.91  HX  87
LANSING*       CLOUDY    80  68  65 CALM      29.91S HX  83
JOLIET*        SUNNY     82  72  70 S5        29.90F HX  87
WAUKEGAN       PTSUNNY   77  71  82 E7        29.91F
DUPAGE AIRPORT SUNNY     82  69  64 CALM      29.90  HX  85
KANKAKEE*      CLOUDY    78  70  77 E3        29.92S HX  80
WHEELING       PTSUNNY   77  71  82 E7        29.92
MORRIS*        MOSUNNY   82  73  73 SE3       29.89F HX  87
ROMEOVILLE*    MOSUNNY   82  68  63 S5        29.90F HX  85
NORTHERLY ISL    N/A     78  71  79 E3          N/A  HX  80
$$

LMZ740>746-281600-
SOUTHERN LAKE MICHIGAN

STATION/POSITION SKY/WX   TEMP    WIND        PRES    VSBY  WAVE
                          AIR SEA DIR/SP/G                  HT/PER
                          (F)     (DEG/KT/KT) (MB)    (MI)  (FT/S)
SOUTHERN BUOY              74 75  100/  4/  6 1012.2F         1
WILMETTE HARBOR            74 71   90/  2/  4   N/A           1/ 2
HARRISON CRIB              78     110/  5/  5   N/A
BURNHAM HARBOR             77     100/  2/  4   N/A
CALUMET HARBOR             77      90/  5/  6 1012.2F
BURNS HARBOR               77      70/  5/  6 1013.5
MICHIGAN CITY              77     360/  4/  4   N/A
MICHIGAN CITY 6N           78 78   60/  2/  2   N/A           1
ST. JOSEPH                 76 78  330/  2/  2 1012.4F         0
$$

ILZ025>027-034>036-040-047-049-050-058-095>099-281600-
WEST-CENTRAL ILLINOIS

CITY           SKY/WX    TMP DP  RH WIND       PRES   REMARKS
QUINCY         SUNNY     80  73  79 NW6       29.92  HX  84
GALESBURG*     SUNNY     80  70  73 NW8       29.91F HX  83
MACOMB*        SUNNY     80  71  74 NW8       29.94S HX  83
JACKSONVILLE*  MOSUNNY   80  73  79 NW5       29.91S HX  84
PITTSFIELD*    SUNNY     81  72  76 NW3       29.93S HX  85
$$

ILZ028>032-037-038-041>044-048-051>054-059>061-281600-
CENTRAL ILLINOIS

CITY           SKY/WX    TMP DP  RH WIND       PRES   REMARKS
PONTIAC        PTSUNNY   80  74  81 SE6       29.92S HX  85
BLOOMINGTON    MOSUNNY   78  70  76 SE7       29.92  HX  80
DECATUR        MOSUNNY   79  72  79 SE8       29.91F HX  82
PEORIA         CLOUDY    82  73  74 CALM      29.90  HX  87
LACON*         PTSUNNY   79  72  78 CALM      29.90S HX  83
LINCOLN*       MOSUNNY   81  75  82 CALM      29.91R HX  86
SPRINGFIELD    MOSUNNY   83  74  74 NE3       29.91  HX  89
TAYLORVILLE    CLOUDY    82  76  81 MISG      29.91R HX  88
$$

ILZ033-039-045-046-055>057-062-063-281600-
EAST-CENTRAL ILLINOIS

CITY           SKY/WX    TMP DP  RH WIND       PRES   REMARKS
CHAMPAIGN      CLOUDY    73  69  87 CALM      29.92S
MATTOON        CLOUDY    73  65  75 NE7       29.92S
PARIS*         CLOUDY    74  73  97 CALM      29.91F
$$

ILZ079-100>102-281600-
SOUTHWEST ILLINOIS

CITY           SKY/WX    TMP DP  RH WIND       PRES   REMARKS
ALTON          MOSUNNY   81  73  78 NW6       29.91  HX  85
CAHOKIA*       SUNNY     84  74  71 W3        29.89  HX  91
SPARTA*        SUNNY     81  74  78 NW3       29.92S HX  86
$$

ILZ064>066-069>071-074>076-080>082-084>086-088>090-092>094-281600-
SOUTH-CENTRAL ILLINOIS

CITY           SKY/WX    TMP DP  RH WIND       PRES   REMARKS
CARBONDALE     MOSUNNY   80  72  76 CALM      29.91  HX  84
CAIRO*         CLOUDY    78  76  92 SW5       29.92F HX  81
EFFINGHAM*     CLOUDY    78  76  92 E3        29.93S HX  80
MARION         PTSUNNY   79  75  89 SW7       29.93  HX  82
MT. VERNON     PTSUNNY   81  72  74 MISG      29.90F HX  84
CENTRALIA*     CLOUDY    81  76  83 CALM      29.90S HX  87
SALEM*         CLOUDY    81  74  77 CALM      29.91R HX  87
METROPOLIS*    CLOUDY    78  75  88 S3        29.93F HX  81
$$

ILZ067-068-072-073-078-083-087-091-281600-
SOUTHEAST ILLINOIS

CITY           SKY/WX    TMP DP  RH WIND       PRES   REMARKS
LAWRENCEVILLE  CLOUDY    79  73  82 VRB5      29.91  HX  82
FLORA*         CLOUDY    79  75  86 CALM      29.92S HX  83
FAIRFIELD*     CLOUDY    77  74  91 S3        29.90F
HARRISBURG*    CLOUDY    76  75  95 S5        29.93S
ROBINSON*      CLOUDY    78  73  84 CALM      29.92S HX  80
CARMI*         CLOUDY    77  74  91 S5        29.92S
$$

ABBREVIATIONS USED IN REMARKS
   TC - TEMPERATURE IN CELSIUS
  WCI - WIND CHILL INDEX
   HX - HEAT INDEX
  VSB - VISIBILITY
$$




USA.gov is the U.S. government's official web portal to all federal, state and local government web resources and services.